Litchfield, MN

9:07 PM CDT on September 23, 2017 (GMT -0500)
Litchfield Municipal

Weather History for KLJF - January, 2014

Change the Weather History Date:

Thursday, January 16, 2014

  Actual Average Record
Temperature  
Mean Temperature 20 °F -  
Max Temperature 37 °F 21 °F 50 °F (1961)
Min Temperature 3 °F 1 °F -36 °F (1977)
Degree Days  
Heating Degree Days 45    
Moisture  
Dew Point 11 °F    
Average Humidity 80    
Maximum Humidity 93    
Minimum Humidity 67    
Precipitation  
Precipitation 0.00 in - - ()
Sea Level Pressure  
Sea Level Pressure 29.64 in    
Wind  
Wind Speed 18 mph (NW)    
Max Wind Speed 29 mph    
Max Gust Speed 41 mph    
Visibility 6 miles    
Events Rain , Snow    
Averages and records for this station are not official NWS values.
T = Trace of Precipitation, MM = Missing Value Source: NWS Daily Summary

Daily Weather History Graph

Daily Weather History Graph

Search for Another Location

Airport or City:

Trip Planner

Search our weather history database for the weather conditions in past years. The results will help you decide how hot, cold, wet, or windy it might be!

Date:

Astronomy

Jan. 16, 2014 Rise Set
Actual Time 7:52 AM CST 5:03 PM CST
Civil Twilight 7:19 AM CST 5:36 PM CST
Nautical Twilight 6:43 AM CST 6:12 PM CST
Astronomical Twilight 6:08 AM CST 6:47 PM CST
Moon 6:00 PM CST (1/16) 7:42 AM CST (1/16)
Length of Visible Light 10h 16m
Length of Day
9h 11m
Full, 100% of the Moon is Illuminated
Jan 16
Full
Jan 23
Last Quarter
Jan 30
New
Feb 6
First Quarter
Feb 14
Full

Hourly Weather History & Observations

Time (CST) Temp. Windchill Dew Point Humidity Pressure Visibility Wind Dir Wind Speed Gust Speed Precip Events Conditions
12:12 AM 35.6 °F 27.1 °F 28.4 °F 75% 29.39 in 10.0 mi West 12.7 mph 18.4 mph N/A   Scattered Clouds
12:33 AM 35.6 °F 27.1 °F 28.4 °F 75% 29.38 in 10.0 mi West 12.7 mph 18.4 mph N/A   Overcast
12:53 AM 37.4 °F 28.5 °F 30.2 °F 75% 29.38 in 10.0 mi West 15.0 mph 19.6 mph N/A   Overcast
1:12 AM 37.4 °F 28.2 °F 30.2 °F 75% 29.38 in 10.0 mi West 16.1 mph 24.2 mph N/A   Overcast
1:33 AM 37.4 °F 28.2 °F 30.2 °F 75% 29.37 in 10.0 mi West 16.1 mph 26.5 mph N/A   Overcast
1:53 AM 35.6 °F 26.2 °F 33.8 °F 93% 29.38 in 2.5 mi WNW 15.0 mph 27.6 mph N/A Snow Light Snow
2:12 AM 35.6 °F 26.6 °F 33.8 °F 93% 29.38 in 10.0 mi WNW 13.8 mph 23.0 mph N/A   Overcast
2:33 AM 35.6 °F 26.2 °F 33.8 °F 93% 29.38 in 4.0 mi West 15.0 mph 23.0 mph N/A Snow Light Snow
2:53 AM 35.6 °F 27.1 °F 33.8 °F 93% 29.38 in 10.0 mi West 12.7 mph 19.6 mph N/A   Overcast
3:13 AM 35.6 °F 26.6 °F 33.8 °F 93% 29.38 in 10.0 mi West 13.8 mph 18.4 mph N/A   Light Drizzle
3:32 AM 35.6 °F 26.6 °F 33.8 °F 93% 29.37 in 10.0 mi West 13.8 mph 19.6 mph N/A   Overcast
3:53 AM 35.6 °F 26.6 °F 33.8 °F 93% 29.37 in 10.0 mi West 13.8 mph 19.6 mph N/A   Drizzle
4:13 AM 35.6 °F 26.2 °F 33.8 °F 93% 29.37 in 10.0 mi West 15.0 mph 21.9 mph N/A Rain Light Rain
4:32 AM 35.6 °F 27.1 °F 33.8 °F 93% 29.36 in 10.0 mi West 12.7 mph 20.7 mph N/A   Overcast
4:53 AM 35.6 °F 27.5 °F 33.8 °F 93% 29.36 in 7.0 mi WNW 11.5 mph 23.0 mph N/A Rain Light Rain
5:13 AM 35.6 °F 26.6 °F 33.8 °F 93% 29.37 in 7.0 mi WNW 13.8 mph 17.3 mph N/A Snow Light Snow
5:33 AM 35.6 °F 26.2 °F 33.8 °F 93% 29.37 in 10.0 mi WNW 15.0 mph 19.6 mph N/A   Overcast
5:53 AM 33.8 °F 21.0 °F 32.0 °F 93% 29.40 in 3.0 mi NW 25.3 mph 36.8 mph N/A Snow Light Snow
6:13 AM 28.4 °F 13.0 °F 26.6 °F 93% 29.43 in 1.8 mi NW 28.8 mph 41.4 mph N/A Snow Light Snow
6:33 AM 26.6 °F 12.4 °F 24.8 °F 93% 29.45 in 2.0 mi NW 21.9 mph 35.7 mph N/A Snow Light Snow
6:53 AM 26.6 °F 12.0 °F 21.2 °F 80% 29.47 in 4.0 mi NW 23.0 mph 31.1 mph N/A   Overcast
7:13 AM 24.8 °F 9.3 °F 19.4 °F 80% 29.48 in 4.0 mi NW 24.2 mph 31.1 mph N/A   Overcast
7:33 AM 23.0 °F 8.3 °F 19.4 °F 86% 29.49 in 7.0 mi NW 19.6 mph 29.9 mph N/A   Scattered Clouds
7:53 AM 21.2 °F 4.5 °F 15.8 °F 80% 29.51 in 4.0 mi NW 24.2 mph 31.1 mph N/A   Haze
8:13 AM 19.4 °F 3.2 °F 12.2 °F 74% 29.53 in 1.8 mi NW 20.7 mph 36.8 mph N/A Snow Light Snow
8:33 AM 17.6 °F 0.5 °F 12.2 °F 79% 29.55 in 4.0 mi NW 21.9 mph 28.8 mph N/A   Haze
8:53 AM 17.6 °F -0.3 °F 10.4 °F 73% 29.56 in 4.0 mi NW 24.2 mph 32.2 mph N/A   Haze
9:13 AM 17.6 °F 0.1 °F 10.4 °F 73% 29.57 in 7.0 mi NNW 23.0 mph 31.1 mph N/A   Overcast
9:33 AM 15.8 °F -3.4 °F 8.6 °F 73% 29.58 in 2.5 mi NW 26.5 mph 31.1 mph N/A   Haze
9:53 AM 15.8 °F -0.6 °F 8.6 °F 73% 29.57 in 7.0 mi NW 18.4 mph 26.5 mph N/A   Mostly Cloudy
10:13 AM 15.8 °F -2.7 °F 8.6 °F 73% 29.59 in 10.0 mi NW 24.2 mph 33.4 mph N/A   Mostly Cloudy
10:33 AM 15.8 °F -0.6 °F 8.6 °F 73% 29.59 in 10.0 mi WNW 18.4 mph 27.6 mph N/A   Overcast
10:53 AM 15.8 °F -3.7 °F 6.8 °F 68% 29.61 in 4.0 mi WNW 27.6 mph 40.3 mph N/A   Haze
11:13 AM 14.0 °F -5.1 °F 6.8 °F 73% 29.61 in 2.5 mi NW 24.2 mph 36.8 mph N/A   Haze
11:33 AM 12.2 °F -7.5 °F 3.2 °F 67% 29.62 in 7.0 mi NW 24.2 mph 29.9 mph N/A   Overcast
11:53 AM 10.4 °F -9.1 °F 1.4 °F 67% 29.63 in 3.0 mi NW 21.9 mph 32.2 mph N/A   Haze
12:13 PM 8.6 °F -11.4 °F 1.4 °F 73% 29.64 in 3.0 mi NW 21.9 mph 33.4 mph N/A   Haze
12:33 PM 8.6 °F -13.4 °F 1.4 °F 73% 29.64 in 2.0 mi NW 27.6 mph 36.8 mph N/A   Haze
12:53 PM 8.6 °F -13.4 °F 1.4 °F 73% 29.65 in 1.8 mi NW 27.6 mph 39.1 mph N/A   Haze
1:13 PM 8.6 °F -12.7 °F 1.4 °F 73% 29.66 in 3.0 mi NW 25.3 mph 32.2 mph N/A   Haze
1:33 PM 6.8 °F -14.3 °F -0.4 °F 72% 29.68 in 3.0 mi NW 23.0 mph 38.0 mph N/A   Haze
1:53 PM 6.8 °F -14.3 °F 1.4 °F 79% 29.69 in 3.0 mi NW 23.0 mph 32.2 mph N/A   Haze
2:13 PM 6.8 °F -12.4 °F 1.4 °F 79% 29.70 in 1.8 mi NW 18.4 mph 32.2 mph N/A   Haze
2:33 PM 6.8 °F -14.7 °F -0.4 °F 72% 29.72 in 2.0 mi NNW 24.2 mph 34.5 mph N/A   Haze
2:53 PM 6.8 °F -14.7 °F -0.4 °F 72% 29.73 in 3.0 mi NW 24.2 mph 34.5 mph N/A   Haze
3:13 PM 6.8 °F -13.8 °F -2.2 °F 67% 29.74 in 5.0 mi NW 21.9 mph 33.4 mph N/A   Haze
3:33 PM 6.8 °F -12.9 °F -0.4 °F 72% 29.76 in 7.0 mi NW 19.6 mph 31.1 mph N/A   Overcast
3:53 PM 6.8 °F -14.7 °F -2.2 °F 67% 29.77 in 7.0 mi NW 24.2 mph 31.1 mph N/A   Overcast
4:13 PM 6.8 °F -11.3 °F -0.4 °F 72% 29.79 in 5.0 mi NW 16.1 mph 28.8 mph N/A   Haze
4:33 PM 5.0 °F -14.7 °F -2.2 °F 72% 29.80 in 7.0 mi NW 18.4 mph 27.6 mph N/A   Overcast
4:53 PM 5.0 °F -15.2 °F -0.4 °F 78% 29.81 in 5.0 mi NW 19.6 mph 29.9 mph N/A   Haze
5:13 PM 5.0 °F -16.7 °F -0.4 °F 78% 29.82 in 7.0 mi NW 23.0 mph 27.6 mph N/A   Overcast
5:33 PM 5.0 °F -14.7 °F -0.4 °F 78% 29.83 in 10.0 mi NW 18.4 mph 21.9 mph N/A   Overcast
5:53 PM 5.0 °F -15.2 °F -0.4 °F 78% 29.84 in 7.0 mi NW 19.6 mph 26.5 mph N/A   Overcast
6:13 PM 5.0 °F -14.2 °F -0.4 °F 78% 29.85 in 2.0 mi NW 17.3 mph 25.3 mph N/A Snow Light Snow
6:33 PM 3.2 °F -14.6 °F 1.4 °F 92% 29.86 in 1.0 mi NW 13.8 mph 28.8 mph N/A Snow Light Snow
6:52 PM 3.2 °F -15.3 °F -0.4 °F 85% 29.87 in 3.0 mi NW 15.0 mph 25.3 mph N/A   Overcast
7:13 PM 5.0 °F -13.6 °F -0.4 °F 78% 29.87 in 4.0 mi NW 16.1 mph 24.2 mph N/A   Haze
7:33 PM 5.0 °F -13.6 °F -0.4 °F 78% 29.88 in 2.5 mi NW 16.1 mph 27.6 mph N/A   Haze
7:52 PM 5.0 °F -16.7 °F -0.4 °F 78% 29.88 in 4.0 mi NW 23.0 mph 31.1 mph N/A   Haze
8:13 PM 5.0 °F -15.2 °F -0.4 °F 78% 29.88 in 5.0 mi NW 19.6 mph 26.5 mph N/A   Haze
8:33 PM 5.0 °F -16.7 °F -0.4 °F 78% 29.88 in 4.0 mi NW 23.0 mph 32.2 mph N/A   Haze
8:52 PM 5.0 °F -13.6 °F -0.4 °F 78% 29.89 in 5.0 mi NW 16.1 mph 24.2 mph N/A   Haze
9:13 PM 5.0 °F -14.7 °F -0.4 °F 78% 29.90 in 5.0 mi NW 18.4 mph 26.5 mph N/A   Haze
9:32 PM 5.0 °F -13.0 °F -0.4 °F 78% 29.90 in 10.0 mi NW 15.0 mph 19.6 mph N/A   Overcast
9:53 PM 5.0 °F -13.0 °F -0.4 °F 78% 29.91 in 7.0 mi NW 15.0 mph 26.5 mph N/A   Overcast
10:13 PM 5.0 °F -15.2 °F -0.4 °F 78% 29.91 in 7.0 mi NW 19.6 mph 26.5 mph N/A   Overcast
10:32 PM 5.0 °F -14.2 °F -0.4 °F 78% 29.91 in 7.0 mi NW 17.3 mph 25.3 mph N/A   Overcast
10:53 PM 5.0 °F -14.7 °F -0.4 °F 78% 29.91 in 7.0 mi NNW 18.4 mph 27.6 mph N/A   Overcast
11:13 PM 3.2 °F -17.6 °F -0.4 °F 85% 29.92 in 5.0 mi NW 19.6 mph 31.1 mph N/A   Haze
11:33 PM 3.2 °F -16.5 °F -0.4 °F 85% 29.93 in 7.0 mi NW 17.3 mph 26.5 mph N/A   Overcast
11:52 PM 3.2 °F -17.1 °F -2.2 °F 78% 29.93 in 10.0 mi NW 18.4 mph 24.2 mph N/A   Overcast